Theta_e
350 345 343 342 337 335 334 339 340 342 342 342 344 343 343 342 342 340 340 340 340 339 338 341 344 343 343 341 330 325 330 334 333 331 331 334 338 336 336 336 337 338 338 338 340 341 340 339 338 339 338 338 337 332 329 326 322 319 317 316 316 319 324 328 331 330 328 325 320 318 317 317 317 317 317 319 320 322 326 331 334 332 334 335 334
350 346 345 340 336 334 336 342 341 342 341 342 342 341 341 340 340 339 340 340 340 339 339 343 343 343 342 336 326 329 335 336 334 335 336 336 337 336 336 336 337 336 337 338 338 339 338 338 338 338 338 339 335 327 323 322 321 321 319 317 318 322 327 331 333 334 334 333 329 323 319 318 318 319 319 319 319 319 319 322 330 333 335 335 334
348 346 345 339 337 334 336 343 342 341 340 342 341 340 341 340 340 340 341 340 340 339 341 343 342 343 340 331 328 335 338 339 336 336 338 337 336 336 335 335 336 336 337 337 337 338 337 338 338 337 337 337 330 323 324 324 324 323 321 321 321 323 328 331 333 333 335 336 336 332 325 322 321 321 321 321 321 321 321 321 329 334 335 335 335
347 346 344 339 336 335 336 341 341 340 340 341 340 341 341 341 341 341 341 340 341 341 342 343 342 343 336 331 335 340 340 339 336 336 337 337 336 335 335 335 336 336 337 337 337 337 337 338 337 337 337 333 326 325 326 326 326 324 322 323 325 327 331 332 333 333 334 336 338 338 333 329 326 325 323 324 324 324 325 324 328 334 336 335 335
347 346 344 339 336 335 335 339 340 340 339 339 339 341 341 342 342 341 341 341 342 342 343 343 342 341 334 334 340 341 339 339 337 336 337 336 336 335 335 335 335 336 337 337 337 336 337 338 337 338 336 330 326 328 328 328 328 325 323 324 327 330 332 333 333 334 335 336 337 339 337 333 329 328 326 325 326 326 327 326 325 330 335 336 336
346 345 344 342 338 335 334 337 339 340 339 337 338 342 341 341 341 341 341 341 342 342 343 342 342 339 336 339 341 340 339 339 339 339 338 336 335 335 335 334 335 335 336 336 337 337 338 337 338 337 333 329 329 329 328 329 328 327 326 324 326 329 331 332 332 333 334 335 336 338 337 334 330 329 328 326 326 327 329 331 326 325 329 333 335
345 345 344 343 340 335 334 335 338 340 338 336 338 342 342 341 341 341 341 341 342 342 343 342 342 340 338 340 340 340 340 340 340 339 338 338 336 335 335 335 335 335 336 337 337 338 338 338 338 336 331 330 330 329 329 329 328 328 327 326 327 329 331 332 332 333 332 331 332 335 335 334 331 329 329 327 326 326 330 332 328 325 325 326 329
345 346 344 344 341 334 333 333 336 337 337 336 338 341 342 341 341 341 341 341 342 343 343 343 342 341 340 340 340 340 340 340 338 335 334 337 337 336 335 336 336 337 337 337 338 338 338 338 338 335 330 331 331 330 329 329 329 328 328 328 329 330 332 333 333 333 334 330 329 331 333 334 331 330 331 328 327 325 328 329 327 327 327 325 324
346 346 344 344 339 333 333 333 334 335 336 337 338 341 341 341 341 341 341 341 342 342 343 343 342 341 341 341 340 340 339 339 336 332 331 332 334 337 337 337 338 338 338 338 338 339 339 339 338 333 330 332 331 330 329 329 329 328 327 327 328 331 334 333 334 333 335 333 330 331 332 334 331 330 331 330 329 327 327 328 328 328 329 327 325
346 346 345 343 336 332 333 332 331 332 336 338 339 341 341 341 341 341 341 341 341 342 343 343 342 342 341 341 341 340 340 339 337 335 334 330 331 336 338 338 338 339 339 339 339 339 338 338 336 332 331 331 330 330 329 329 328 328 327 327 329 333 335 334 333 332 334 333 330 333 334 334 331 330 332 331 331 330 329 329 329 329 329 329 328
347 347 345 342 335 331 332 332 329 330 336 339 341 341 341 341 341 341 341 341 342 342 343 342 342 342 341 341 341 340 340 340 338 337 335 330 330 336 338 338 338 339 339 338 339 337 337 336 333 331 331 331 330 330 330 330 329 328 328 327 329 333 335 335 333 332 334 331 329 334 334 333 331 331 332 332 332 331 331 330 329 329 329 329 329
348 347 344 341 335 331 332 330 328 332 339 341 342 342 342 342 342 342 342 342 342 342 342 342 342 341 342 341 341 341 340 340 338 337 335 330 331 337 338 337 337 337 338 338 338 338 336 334 331 330 331 332 331 331 331 331 330 329 328 328 329 331 333 334 334 334 335 330 328 333 333 333 332 331 331 332 332 332 331 330 330 330 329 329 329
348 346 343 340 335 332 331 328 330 337 341 341 342 343 343 343 342 343 343 342 343 343 342 342 341 341 341 340 340 340 339 339 338 337 335 331 332 336 338 338 337 337 338 338 338 338 336 332 331 330 331 332 332 332 332 332 331 330 329 328 328 329 332 334 335 335 333 329 329 333 335 334 331 331 331 331 332 332 332 331 331 331 330 329 329
346 345 343 340 335 332 330 328 335 340 342 342 342 342 343 343 343 343 342 342 342 342 341 341 341 340 339 339 338 337 337 337 336 336 335 332 332 335 337 338 338 338 338 338 337 336 334 332 331 330 331 331 331 332 332 332 331 330 330 328 327 327 330 332 333 335 331 329 332 333 335 334 332 331 331 331 331 331 332 332 332 333 334 332 332
345 345 343 341 336 330 328 331 338 342 342 342 342 343 343 343 343 342 342 341 341 340 339 338 337 336 335 334 333 334 334 333 332 333 334 334 333 334 336 337 338 339 338 336 336 335 333 332 331 330 330 331 331 331 331 332 331 331 330 328 326 322 323 325 330 335 331 331 334 335 335 334 332 332 331 331 331 331 332 332 332 334 336 336 335
345 344 342 341 336 330 331 337 341 342 342 342 343 343 343 342 342 342 341 340 338 336 335 333 332 331 329 327 326 326 326 325 327 329 333 335 334 333 334 336 336 337 337 335 335 334 332 332 331 330 330 330 330 330 331 330 330 330 329 328 325 318 318 324 331 335 333 333 335 337 336 333 332 332 332 332 331 331 331 332 332 333 335 335 335
344 343 341 340 337 335 338 341 342 342 343 342 343 343 342 341 341 341 340 337 334 333 332 331 329 326 322 319 318 318 316 317 322 327 332 335 334 333 332 335 335 336 336 334 333 332 332 331 331 330 330 330 330 330 330 329 329 329 328 326 321 317 322 328 332 335 334 335 336 336 335 332 332 332 332 332 331 331 331 332 332 331 333 334 334
343 342 341 339 339 339 341 342 342 343 342 343 343 342 341 341 341 340 337 334 332 332 331 327 321 316 313 312 311 312 311 311 315 323 331 335 334 333 331 333 334 335 334 331 331 330 330 330 330 330 330 330 329 329 329 329 328 327 325 322 319 322 327 330 334 335 334 336 337 335 333 332 332 332 332 332 332 331 331 332 332 331 332 334 334
343 342 340 339 339 340 342 343 343 344 343 343 343 341 341 341 340 337 334 332 332 332 328 319 313 309 308 308 307 308 308 308 312 319 328 334 334 332 330 330 330 331 330 328 328 328 328 328 328 329 329 329 329 328 328 326 323 322 320 319 323 327 330 333 336 335 335 337 337 335 333 332 332 332 332 332 332 332 331 332 332 332 332 333 334
344 342 340 340 340 340 342 344 345 345 343 343 343 341 340 340 338 335 333 333 332 328 321 313 309 308 307 308 311 315 314 309 311 316 323 331 332 330 329 328 328 328 327 326 325 325 325 325 325 326 326 326 327 326 324 322 322 321 319 322 327 330 333 336 336 335 337 338 336 334 333 333 332 332 332 333 332 332 332 332 332 332 332 333 334
344 343 341 340 340 340 342 344 345 345 344 344 343 341 340 339 336 334 334 333 330 323 316 312 313 315 317 321 327 332 329 317 314 316 320 325 327 328 328 328 328 328 327 327 325 324 323 322 322 322 322 322 322 321 320 322 324 324 324 326 329 332 335 336 337 336 338 338 335 333 333 333 333 333 333 333 333 332 332 333 333 333 333 334 335
344 343 342 340 340 339 340 343 345 345 345 344 343 341 339 338 335 335 334 332 326 318 315 315 320 328 331 334 337 339 339 331 324 319 317 321 324 324 327 328 328 328 328 328 326 325 323 321 320 318 318 318 319 319 319 324 327 328 328 329 331 334 336 335 337 338 338 338 334 334 334 334 334 334 334 334 334 333 333 333 334 335 335 335 336
343 343 343 340 340 339 340 344 345 345 346 345 345 341 338 337 336 336 334 328 320 315 317 319 326 335 336 337 339 339 340 337 333 328 320 320 323 323 325 327 327 328 328 328 327 325 323 321 320 318 318 319 320 320 324 330 332 331 330 331 333 335 335 335 338 339 338 337 335 334 335 335 336 335 336 336 336 336 334 335 336 336 337 336 336
343 343 342 340 339 338 341 344 345 346 346 346 345 340 339 340 339 339 333 323 321 325 328 330 332 336 338 338 339 339 339 337 338 338 327 317 318 321 323 325 326 326 326 325 324 322 321 321 320 319 319 321 324 325 329 335 336 334 332 334 335 334 334 337 339 339 338 337 336 336 335 336 337 337 337 337 337 337 336 337 337 337 337 336 336
343 342 342 340 338 338 341 344 345 346 345 345 344 341 342 343 342 341 334 327 332 337 337 337 336 336 338 338 339 340 340 340 340 339 330 320 317 318 320 322 322 323 323 322 323 326 325 324 325 324 322 325 330 332 334 336 336 336 335 335 335 334 335 337 339 339 338 336 336 336 336 337 337 338 337 337 337 337 337 337 337 337 336 336 336
342 341 341 340 338 339 342 344 344 346 345 344 344 343 343 343 342 342 338 335 339 338 336 337 338 337 338 338 340 341 340 340 339 338 337 332 327 324 323 324 325 327 326 326 332 336 336 334 334 333 330 332 335 336 337 337 336 337 336 335 334 334 335 338 340 338 337 335 335 336 336 336 336 337 337 337 337 336 336 336 336 336 335 336 336
342 340 340 338 337 340 343 343 343 345 345 345 344 344 343 342 342 341 340 339 338 337 336 338 338 338 339 340 341 341 341 341 341 341 342 339 337 336 334 333 335 337 335 334 337 339 338 337 337 336 334 336 337 337 338 338 337 337 336 335 334 335 336 338 339 337 336 334 334 335 335 335 336 337 337 337 337 336 336 336 335 335 334 334 334
341 340 339 338 338 340 343 343 343 344 345 346 345 344 343 341 341 340 340 337 336 337 337 338 338 339 341 341 341 341 341 341 341 341 342 340 338 339 338 338 338 338 338 338 339 338 337 338 337 336 336 336 338 338 338 337 337 337 336 335 335 336 337 338 338 337 335 332 331 332 332 333 334 335 335 336 336 335 335 334 334 333 333 333 332
341 339 337 339 339 339 342 342 343 344 343 345 345 343 342 341 341 340 339 337 336 337 338 338 338 340 342 342 342 342 341 340 339 339 340 339 338 338 338 338 338 337 338 338 339 339 338 339 337 336 336 336 337 337 336 337 336 335 335 335 335 336 336 337 337 336 335 331 329 329 329 329 330 332 334 334 334 334 333 332 332 332 331 330 330
340 339 338 340 339 338 342 342 343 344 342 343 343 342 342 341 342 340 338 336 336 337 337 338 338 340 342 342 342 342 341 340 339 338 339 340 338 338 338 338 338 337 338 337 338 338 338 339 338 336 336 336 336 336 335 336 335 334 334 335 335 335 335 336 336 335 334 331 329 327 327 326 326 328 329 330 330 329 329 329 329 329 330 329 329
341 339 338 341 339 338 341 341 342 344 343 343 342 342 341 342 341 340 338 335 336 338 337 338 339 339 340 342 342 341 341 340 339 339 339 340 338 338 337 337 338 336 336 336 337 337 337 337 337 337 337 336 336 336 336 335 335 334 334 334 334 334 333 333 334 335 334 331 329 327 326 325 324 324 324 325 325 324 323 322 322 323 324 326 327
342 339 338 340 339 338 339 341 343 343 344 343 342 342 341 342 341 339 339 336 337 339 338 338 339 339 340 342 341 341 341 340 340 339 338 338 337 338 338 337 338 337 336 336 337 337 336 337 337 338 337 337 337 337 337 336 335 334 333 332 331 332 332 331 331 332 333 332 330 327 325 324 323 322 321 320 320 319 318 316 315 315 316 318 321
342 339 339 339 339 338 337 340 342 342 343 343 342 342 342 342 341 339 338 337 338 339 338 338 339 339 341 341 341 341 342 341 341 340 339 338 337 338 337 337 339 338 337 337 337 336 335 336 337 337 337 337 337 336 336 336 334 333 332 331 330 329 329 329 329 329 330 330 330 328 325 324 322 320 319 318 316 312 309 308 307 306 306 307 311
342 340 339 339 338 338 337 339 341 342 343 342 342 343 342 342 340 339 338 338 339 339 338 338 339 339 340 341 341 341 342 339 339 340 339 339 338 338 337 338 338 337 337 337 337 336 335 337 338 338 337 337 336 335 335 335 333 331 330 329 328 327 326 326 327 327 327 326 326 324 323 321 320 318 316 314 312 307 302 302 303 302 299 298 301
342 341 341 339 338 339 339 339 341 343 342 342 343 342 342 341 340 339 339 340 339 338 339 339 339 339 340 341 341 341 341 338 338 339 338 339 339 338 338 338 337 337 337 337 337 336 337 338 337 338 337 336 335 334 334 333 332 330 328 327 325 324 324 324 323 324 323 322 321 320 319 317 316 315 313 311 310 308 305 303 305 306 302 297 296
343 341 341 338 337 339 340 340 341 343 343 342 342 342 342 341 339 339 340 340 339 339 340 339 338 338 340 341 341 341 340 338 338 338 338 338 338 338 338 338 337 337 336 336 336 336 336 337 336 337 337 336 334 333 334 333 331 328 327 325 323 322 321 321 320 320 319 318 317 316 315 313 312 311 310 309 308 309 308 306 307 308 306 302 297
343 342 341 339 338 339 340 341 342 343 343 343 343 342 342 340 339 339 340 340 339 339 339 339 338 339 340 341 341 341 339 338 338 337 337 338 338 338 337 337 337 337 336 335 335 335 335 336 335 335 335 335 334 333 333 331 329 327 325 323 321 320 319 318 318 317 316 315 313 312 311 310 311 310 309 308 307 308 308 307 308 308 308 305 301
343 342 341 340 339 340 341 342 343 343 343 343 343 342 342 340 340 340 340 340 339 339 339 339 339 340 340 340 341 341 339 338 338 337 337 337 338 337 337 336 336 336 336 335 334 333 334 334 335 334 333 333 334 334 332 330 327 325 323 321 319 318 317 316 316 315 314 313 312 311 310 309 309 309 309 308 306 306 307 307 308 308 308 307 304
344 343 342 340 340 341 341 342 343 343 343 343 343 342 342 340 340 340 340 340 339 340 340 339 340 340 340 340 340 340 339 338 337 336 337 337 337 336 336 335 335 335 335 335 334 333 333 333 333 332 332 331 332 333 331 328 326 324 323 321 319 317 316 315 314 314 313 312 312 311 310 309 309 309 308 308 306 305 305 305 306 306 307 308 306
344 343 342 340 341 341 342 343 343 343 342 343 343 342 341 341 340 340 340 340 340 341 341 340 340 340 340 339 339 338 338 338 336 336 336 335 335 335 335 334 334 333 333 334 333 334 333 333 332 331 332 331 330 332 329 326 325 323 322 320 319 317 315 314 312 312 311 310 311 310 310 310 309 308 307 307 307 305 304 304 303 303 306 307 307
344 344 342 341 341 342 342 343 343 343 342 343 343 342 341 341 340 340 340 340 340 340 341 340 340 340 340 338 338 337 338 337 336 335 334 334 334 333 334 333 332 332 332 332 332 331 330 331 330 329 331 330 329 331 329 326 325 323 322 320 318 317 315 314 312 311 310 309 309 308 308 308 308 308 308 307 306 306 305 304 301 301 304 306 307
345 343 342 341 342 342 343 343 343 342 342 342 342 341 341 341 340 340 340 339 339 340 340 340 340 340 340 338 337 337 337 336 335 334 333 334 333 333 333 331 331 330 330 330 330 329 329 330 330 327 330 331 329 330 329 327 326 324 323 322 319 317 315 313 311 310 309 309 309 308 308 307 307 307 308 307 306 305 305 305 304 301 302 304 306
345 344 342 342 343 342 342 343 342 342 342 341 341 341 341 340 340 339 339 338 338 339 339 339 338 338 338 337 336 336 335 334 333 333 333 333 332 332 330 329 329 329 329 330 329 329 328 329 329 327 327 328 329 330 329 329 328 325 325 325 322 320 317 313 310 309 308 308 308 309 309 308 307 306 307 307 306 306 306 305 305 303 302 304 305
345 344 343 343 343 343 343 343 342 342 342 341 340 340 340 339 339 338 337 337 338 338 338 337 337 337 336 336 335 334 333 332 332 332 331 331 330 330 329 329 328 327 328 329 328 328 328 328 329 327 325 324 326 327 328 330 330 328 327 328 326 325 322 316 310 308 307 307 307 307 308 308 308 307 306 305 305 306 306 306 305 305 305 304 305
345 345 344 344 344 343 343 343 343 342 341 340 339 339 339 339 338 338 337 337 338 337 336 336 335 335 334 334 333 333 332 331 331 331 330 329 329 328 328 328 326 325 326 327 327 327 327 327 328 328 326 324 323 322 322 325 328 326 325 327 329 330 326 315 312 312 309 307 307 305 306 308 308 307 305 304 304 304 305 306 305 305 306 305 304
345 345 344 344 344 343 343 343 343 342 341 339 338 338 338 338 338 338 337 338 337 337 336 335 334 334 333 332 332 331 330 330 330 330 329 328 327 326 326 326 325 325 326 326 326 326 326 325 325 325 323 321 320 317 316 319 322 321 319 320 323 327 323 316 316 316 311 308 308 307 306 306 307 307 306 304 304 303 302 305 306 305 305 305 304
345 345 344 344 344 343 343 343 342 341 340 339 339 338 338 339 339 338 338 338 337 337 336 335 334 333 332 331 331 330 329 329 329 329 328 326 325 325 324 324 323 323 324 325 325 324 323 323 322 322 321 320 318 315 312 312 315 315 314 314 315 318 320 319 319 317 313 311 309 307 305 304 305 307 307 305 305 304 303 304 305 305 304 304 304
344 344 344 344 343 343 343 343 342 341 340 339 338 339 339 339 339 338 338 337 336 336 336 334 333 332 331 330 329 329 329 329 328 328 326 325 325 324 323 322 321 321 322 322 322 321 320 320 320 321 322 321 318 314 311 311 312 312 312 312 311 313 315 316 316 315 317 316 312 309 307 305 305 304 304 304 304 304 304 304 304 304 304 303 303
344 343 343 342 343 343 343 342 341 340 339 338 338 339 340 340 339 338 338 337 336 336 336 334 332 332 331 329 328 328 329 328 327 326 325 324 324 322 321 320 319 319 320 320 319 318 317 317 317 319 319 319 317 315 314 314 314 314 313 313 311 311 311 311 312 312 315 317 315 312 310 308 308 305 304 304 303 303 305 305 305 304 305 303 303
343 342 343 341 341 343 343 342 341 341 340 338 339 340 340 340 339 338 338 337 336 336 334 332 331 331 330 329 329 329 328 327 325 325 324 323 322 321 320 318 317 317 317 316 316 315 314 314 314 315 316 316 315 315 315 314 314 314 314 314 313 312 313 312 312 311 313 315 315 313 311 311 311 309 306 305 304 304 305 306 305 305 304 303 303
344 342 343 341 340 342 343 342 341 341 341 339 339 340 340 339 338 338 338 337 336 335 333 331 330 330 329 329 329 328 327 326 325 324 323 323 321 319 318 317 316 315 314 313 312 312 311 311 312 312 313 313 313 313 313 312 312 312 312 312 312 312 312 313 312 311 312 313 315 315 311 310 312 310 307 307 306 305 306 306 304 303 303 302 302
Wind_Speed
19 23 24 22 21 20 18 18 18 17 17 15 14 13 13 12 12 11 11 11 10 10 10 10 10 11 10 10 10 12 12 13 14 14 14 13 13 12 13 14 15 15 15 15 14 14 14 14 15 14 12 13 13 14 15 16 17 18 19 20 21 23 23 23 22 22 22 23 24 22 20 19 19 20 19 17 16 15 15 15 13 13 17 17 17
22 24 23 23 21 21 19 18 18 18 17 16 15 14 14 13 13 12 11 10 11 11 11 10 10 11 10 9 10 11 12 13 14 14 13 13 13 12 13 14 15 15 15 16 13 14 14 14 14 13 12 13 13 15 17 18 19 19 20 20 21 21 21 21 19 19 19 19 22 22 21 19 19 19 19 18 17 18 17 17 15 15 16 16 16
24 23 22 23 22 21 20 19 19 18 18 17 15 15 14 14 13 12 11 10 11 11 10 10 10 10 9 9 10 11 11 12 14 13 12 12 12 12 13 13 15 16 16 16 14 14 14 13 13 13 13 13 14 17 18 19 19 20 20 21 21 21 20 20 18 16 15 15 17 18 19 18 18 17 17 17 18 19 20 20 18 17 15 14 15
25 23 22 23 22 21 20 20 19 19 18 17 16 15 14 14 13 12 11 11 12 11 10 10 10 9 9 9 9 9 10 11 13 13 12 11 12 12 12 13 14 15 16 16 16 15 13 12 13 13 13 14 16 17 18 18 19 19 20 20 21 21 20 18 16 14 12 12 11 12 13 16 17 15 15 15 17 18 20 20 17 16 15 15 15
26 23 23 23 22 21 20 21 19 20 19 18 17 15 15 14 13 13 12 12 12 11 10 10 10 9 9 8 8 8 9 11 13 13 12 11 11 11 11 12 13 14 15 16 16 16 14 14 14 13 13 15 16 17 17 17 17 17 18 19 19 19 18 17 15 12 10 9 8 8 9 10 16 15 15 15 15 16 18 19 17 15 14 15 15
25 23 23 23 22 22 21 21 20 20 19 19 18 15 15 14 14 14 13 12 12 11 10 10 10 9 8 8 7 8 8 10 13 12 11 11 11 11 11 11 12 13 14 15 16 15 15 14 13 12 13 15 16 16 16 16 15 15 15 16 16 16 16 15 14 11 9 9 6 6 8 7 14 14 14 15 14 15 17 17 17 16 13 14 13
24 23 22 22 22 22 21 21 20 20 20 19 18 16 15 15 14 14 13 13 12 11 11 11 10 9 8 7 8 8 9 11 12 11 11 11 11 11 10 11 12 12 14 14 15 15 14 13 12 11 13 14 14 15 15 14 14 14 14 14 15 15 15 14 13 12 11 12 9 7 9 7 12 14 13 15 14 15 16 15 15 17 14 14 14
23 23 21 21 22 23 21 21 20 20 21 20 18 16 15 15 14 14 13 13 12 11 11 11 10 9 8 7 8 8 9 10 10 10 11 11 11 10 10 12 12 12 13 13 13 12 12 12 11 11 13 14 14 14 13 13 13 12 12 13 13 13 12 11 10 10 10 14 13 10 10 9 11 14 13 14 14 15 14 14 14 15 16 16 16
22 22 21 21 22 22 21 21 20 20 22 21 19 16 16 15 14 14 13 13 12 11 11 10 10 9 8 7 7 8 9 8 8 9 10 11 11 11 11 11 11 11 12 12 11 11 11 10 10 11 14 14 14 13 12 12 12 11 11 11 11 10 10 9 8 8 8 10 11 11 11 11 12 13 12 13 14 14 13 13 14 15 16 16 17
22 22 21 20 22 21 20 21 20 20 22 20 18 17 16 15 14 14 13 13 12 11 11 10 10 9 8 7 7 8 8 7 7 8 8 8 10 12 12 11 11 10 10 10 10 10 9 8 8 11 13 13 13 12 12 11 11 10 10 9 9 8 8 7 6 7 7 7 7 8 9 8 11 13 11 12 12 13 13 13 14 15 15 16 17
22 22 20 20 21 20 19 20 20 21 22 20 17 17 16 15 14 14 14 13 11 11 11 11 11 9 8 7 8 8 8 7 6 6 7 8 10 11 11 12 11 10 9 9 9 9 8 7 8 9 11 12 12 12 11 11 10 9 8 7 6 5 4 4 4 5 5 6 6 6 8 7 9 11 10 11 11 11 12 13 14 14 15 15 16
22 22 20 20 20 18 19 19 21 23 21 19 16 16 15 15 14 14 14 13 12 11 11 11 11 10 9 8 8 7 6 6 5 4 5 7 10 9 9 10 11 10 9 8 8 7 7 8 9 9 9 10 10 10 10 10 9 8 7 6 5 3 3 4 4 6 5 5 6 7 8 7 9 9 9 9 10 10 11 11 12 13 13 14 14
23 21 19 20 20 18 18 20 22 22 19 17 16 16 15 15 14 13 13 13 12 11 11 11 11 10 9 8 7 7 6 6 5 4 4 6 10 9 8 9 10 11 9 8 7 6 7 9 10 9 9 9 9 9 8 8 8 7 6 5 4 2 3 5 6 7 5 5 6 8 7 7 8 7 7 8 8 9 10 10 10 10 11 11 12
21 20 19 19 20 19 19 21 22 20 18 17 16 16 15 15 14 13 13 13 13 11 11 10 10 9 8 7 6 6 6 6 5 5 5 6 9 10 8 8 9 10 10 9 8 6 7 8 8 8 9 9 8 7 7 6 6 5 5 4 4 3 4 6 8 9 6 6 8 9 7 7 8 7 7 7 7 8 8 9 9 9 9 9 10
20 21 19 18 20 21 21 22 21 18 17 17 16 15 15 15 14 14 13 13 12 11 9 8 8 7 7 6 6 6 6 6 6 6 7 7 9 10 9 8 8 8 9 9 8 6 7 7 6 6 7 7 7 6 6 5 4 4 4 5 6 6 6 8 11 12 9 10 13 10 7 7 8 7 7 6 7 7 8 9 10 9 8 8 9
21 21 19 18 20 22 21 20 19 18 17 17 16 16 15 15 14 14 13 12 10 9 8 7 7 6 6 6 6 7 7 8 7 7 8 8 8 9 9 8 8 7 8 8 7 7 7 6 5 5 5 5 5 4 4 4 3 4 4 5 7 7 8 8 11 14 11 9 12 10 6 7 7 6 6 6 6 7 8 9 10 10 8 8 9
20 20 20 19 20 20 18 17 18 18 17 17 16 16 15 15 14 13 12 11 9 8 7 6 6 6 6 6 6 7 7 8 8 8 9 9 8 8 8 8 8 7 7 8 8 7 7 5 5 4 3 3 2 2 2 2 2 3 4 6 7 7 8 8 11 13 11 9 9 8 6 7 7 6 7 6 6 7 7 8 9 10 10 10 11
20 20 21 20 19 18 16 17 18 17 17 17 16 15 15 15 14 13 11 10 9 7 6 5 5 5 5 5 5 5 6 7 9 9 10 9 8 7 8 8 8 7 8 9 8 7 6 5 4 3 3 2 1 1 0 1 2 3 5 6 7 7 6 10 13 10 8 9 8 7 7 7 7 7 7 6 6 7 7 7 8 9 11 12 12
21 21 20 20 19 17 16 16 18 17 17 17 15 15 14 14 13 12 11 9 8 6 5 5 5 5 5 5 6 5 5 6 8 9 11 10 9 8 7 8 8 8 9 9 8 7 6 5 4 4 3 3 3 2 2 3 4 5 5 6 6 6 7 11 11 7 7 8 6 8 8 7 8 7 7 7 7 7 7 7 8 9 10 12 13
20 21 20 20 18 18 17 16 17 16 17 18 16 16 15 14 13 11 10 9 6 6 6 6 7 8 8 9 9 9 7 5 6 7 11 11 10 9 8 8 9 9 9 8 7 6 5 4 4 4 4 4 4 3 2 2 3 4 5 6 6 6 8 10 7 6 8 7 7 8 8 8 7 7 7 7 8 8 8 7 8 9 10 12 13
18 19 19 19 18 18 18 17 18 17 17 18 17 17 16 15 13 12 10 8 6 7 7 9 10 10 11 11 9 8 6 5 6 6 8 11 11 10 9 8 8 8 7 7 6 5 4 3 4 4 4 5 4 4 3 2 1 3 4 5 6 6 6 6 5 6 8 6 8 9 7 7 7 7 8 8 9 9 8 7 8 9 11 12 12
16 17 17 18 18 17 18 18 19 19 18 17 17 17 17 16 14 12 10 8 8 8 9 11 12 11 10 10 9 6 1 2 5 5 7 10 10 10 9 8 7 7 6 6 5 4 3 3 3 3 3 4 5 6 5 5 3 1 2 4 4 4 3 4 6 7 6 5 7 8 7 6 6 7 8 9 9 9 8 8 8 10 10 11 12
15 16 16 17 18 18 19 19 20 20 19 17 16 17 18 16 14 12 10 10 10 10 10 12 11 8 7 7 7 7 5 1 3 5 6 7 9 8 9 8 7 7 6 6 5 4 3 3 4 3 4 5 7 8 6 7 6 3 1 3 1 4 2 4 7 7 5 5 7 7 6 6 7 8 8 9 9 9 9 9 9 10 10 10 10
16 17 17 16 18 19 19 19 20 20 19 18 16 17 18 15 14 12 10 11 12 11 10 10 10 7 6 4 4 7 8 5 5 6 5 6 8 8 8 8 7 7 7 6 6 6 5 6 6 6 7 8 9 10 8 9 8 6 2 4 2 4 3 7 8 6 5 7 8 6 5 6 7 8 9 9 9 9 9 9 9 9 10 10 10
18 18 17 17 18 20 19 19 21 20 20 21 17 18 19 16 15 12 10 11 12 11 10 11 9 7 8 7 6 8 8 7 8 9 5 4 5 6 7 7 7 7 7 7 6 6 6 6 6 8 8 8 9 11 9 8 5 4 4 5 1 2 6 9 8 7 5 7 8 6 6 6 7 9 10 10 10 11 11 11 11 11 11 11 11
19 18 17 18 18 20 19 20 22 21 21 21 18 18 18 17 16 14 11 10 13 13 10 11 10 9 8 8 8 8 7 8 9 9 5 5 5 5 6 6 7 7 7 8 7 8 8 7 8 10 9 9 8 6 4 4 2 2 2 5 3 1 6 11 10 7 5 6 7 6 6 6 7 9 11 12 12 12 12 12 12 12 12 12 12
20 18 18 18 18 20 19 19 22 21 20 20 19 19 18 17 16 14 13 11 13 13 10 10 10 10 9 7 7 7 8 8 8 7 6 8 8 7 8 8 9 9 8 8 8 9 8 7 9 10 7 5 4 3 2 0 0 2 2 5 5 4 9 12 11 8 6 7 8 7 7 6 6 7 9 11 12 12 12 13 13 13 13 13 12
21 20 19 20 18 20 20 19 20 19 20 19 18 18 17 16 15 14 14 13 12 11 10 10 9 10 9 8 7 8 8 8 7 5 5 7 7 7 8 9 10 9 8 8 8 8 6 4 5 5 3 2 3 3 2 1 1 0 2 5 6 8 11 13 12 10 8 9 11 9 9 8 6 5 5 6 7 9 10 11 12 13 13 13 12
22 21 20 22 20 20 20 19 20 19 18 18 17 17 15 14 15 14 13 12 12 11 10 10 9 8 8 8 7 7 6 6 5 4 4 5 5 7 6 7 7 6 6 6 7 7 5 3 3 3 4 3 4 2 2 2 2 2 3 6 6 7 11 13 13 10 7 9 11 11 10 10 9 7 5 4 4 5 7 7 7 10 12 13 13
22 22 19 23 21 20 21 20 20 19 18 17 16 16 15 15 14 13 12 11 11 10 10 9 9 8 7 7 7 6 5 4 3 3 4 3 3 6 5 5 3 3 5 5 5 4 3 3 3 3 3 3 2 1 1 2 1 2 5 7 7 7 8 10 11 9 7 8 10 11 12 13 12 10 8 7 7 7 7 7 7 7 8 10 12
22 23 20 22 22 20 21 22 20 19 19 17 16 16 15 15 14 13 11 12 10 9 10 9 8 7 7 6 5 5 4 6 5 4 4 3 4 6 6 6 6 5 6 5 3 2 3 3 4 3 2 3 2 1 1 2 3 4 7 9 9 9 9 9 10 9 7 8 10 13 13 14 14 13 11 10 9 9 10 10 10 9 7 7 8
21 24 21 22 23 22 21 22 22 19 18 17 15 16 16 14 13 12 11 12 12 10 9 8 7 7 6 5 5 5 4 6 7 6 7 7 7 8 9 9 9 8 6 3 3 3 5 3 4 4 3 3 3 2 3 4 6 9 10 10 12 12 10 10 11 11 10 8 9 12 13 13 13 14 13 12 11 10 11 11 11 11 10 9 8
20 22 22 24 23 22 20 21 22 20 17 16 16 16 16 14 12 11 10 12 12 10 9 8 7 6 6 5 5 5 4 4 5 6 7 8 7 7 7 7 7 5 4 3 2 6 8 4 5 4 4 4 4 4 5 5 6 9 11 11 12 13 12 10 9 11 13 11 9 10 12 12 12 13 13 12 12 12 11 11 12 12 11 10 10
20 20 23 27 23 21 21 20 21 20 17 15 16 16 15 14 12 11 11 12 11 9 9 8 7 6 5 5 5 4 3 3 5 6 5 6 7 7 6 6 5 4 4 3 2 6 5 2 4 4 4 5 5 5 5 7 9 11 11 12 11 11 12 11 10 9 9 11 11 10 10 10 11 12 12 11 12 13 12 12 13 14 14 12 10
21 20 23 27 24 20 21 20 19 19 17 16 16 16 15 14 12 11 12 12 10 9 8 8 7 7 6 5 4 3 3 3 5 5 4 6 7 7 7 6 4 3 5 4 2 4 0 2 3 3 3 4 5 6 8 9 11 14 12 12 12 11 10 10 12 11 9 9 8 8 8 8 9 10 10 11 13 13 13 14 15 16 17 16 13
22 21 23 27 24 20 20 21 19 18 18 17 16 16 15 14 12 11 12 11 10 8 8 7 7 6 6 6 4 3 3 3 5 5 5 7 6 6 7 6 3 2 3 2 3 3 1 2 3 3 2 3 4 6 11 11 11 12 12 12 11 11 11 10 11 11 10 10 8 7 7 7 8 8 8 9 11 12 13 14 15 16 17 18 15
21 20 22 27 24 20 21 22 20 19 19 18 16 16 15 14 12 11 11 11 10 8 8 7 6 7 7 7 6 5 5 4 5 6 7 6 6 7 7 6 4 2 1 0 2 3 1 3 4 1 3 2 2 6 12 12 12 12 12 12 11 10 11 10 10 9 9 9 9 7 7 7 8 7 7 7 8 9 12 13 14 14 16 18 17
21 21 22 25 24 22 22 21 21 20 20 19 17 16 15 14 12 11 12 11 9 8 8 7 6 7 7 7 6 6 6 6 6 8 9 8 7 7 6 6 4 2 2 3 3 3 3 1 2 0 2 1 5 9 15 13 13 14 13 12 10 9 10 9 8 8 8 8 8 7 6 6 7 7 7 7 7 8 9 12 13 13 14 16 17
21 22 24 24 23 23 23 22 22 22 21 20 18 16 15 14 12 12 12 11 9 8 8 8 7 7 7 7 7 7 7 7 8 9 9 9 8 6 6 5 3 2 3 4 3 2 2 1 1 1 1 1 5 10 14 15 16 15 13 11 9 9 9 9 8 7 8 7 6 6 6 6 6 7 7 7 8 9 9 9 8 9 11 14 15
22 23 26 25 24 24 24 23 24 24 22 21 19 17 15 14 13 12 12 11 10 8 8 8 8 8 6 6 7 10 10 9 9 8 8 7 5 4 4 2 1 3 4 5 2 1 3 2 1 2 2 2 5 9 13 16 17 15 12 10 8 8 7 8 8 7 6 6 5 5 5 5 5 6 6 7 8 10 9 7 5 5 7 10 13
23 24 27 26 25 26 25 24 25 25 24 22 20 19 17 16 15 14 13 12 10 10 9 8 9 9 7 6 8 12 12 10 10 9 9 9 6 4 2 1 2 4 4 5 4 2 3 2 1 1 3 4 6 8 11 13 13 12 10 8 8 8 7 7 6 6 5 4 4 4 5 5 4 4 5 6 6 7 8 8 7 5 5 6 8
23 25 28 27 25 26 25 25 26 25 24 24 24 21 19 18 17 15 13 12 11 10 10 9 10 10 8 6 9 12 12 10 10 10 9 9 8 7 4 4 4 4 4 4 3 2 3 3 3 2 3 5 5 9 11 9 9 11 9 7 7 6 5 5 5 5 4 4 4 4 5 5 4 4 4 4 4 4 5 6 8 8 7 6 6
25 26 29 27 25 26 26 25 26 25 24 24 24 22 20 18 17 15 13 13 12 10 11 12 11 11 11 9 9 10 10 9 8 9 8 6 6 5 4 5 5 4 5 5 4 4 4 3 5 4 5 5 5 8 9 5 6 12 11 6 4 4 3 3 4 4 4 4 4 4 4 4 4 3 3 3 3 3 4 5 6 9 9 8 7
26 28 28 28 27 27 26 26 27 26 23 23 22 21 20 18 16 15 13 13 13 12 12 12 11 11 11 11 11 11 9 8 7 6 5 4 3 3 3 4 4 4 4 3 4 3 2 3 4 4 4 5 5 5 4 3 4 9 5 1 4 4 1 4 6 4 3 4 3 4 5 4 3 2 2 3 3 3 4 5 7 9 9 9 8
26 29 29 28 27 27 26 26 28 26 24 24 22 20 20 18 16 15 14 14 14 13 12 11 11 10 9 10 11 11 8 7 6 4 3 2 1 2 3 3 3 4 2 2 4 4 3 3 3 3 2 3 7 4 2 3 4 5 2 2 2 1 1 7 8 4 4 4 4 3 4 4 1 2 2 2 2 3 3 5 9 8 8 10 9
26 30 30 27 25 26 27 27 27 25 25 25 23 21 21 19 18 18 17 18 16 14 14 13 12 12 11 10 9 9 8 7 6 3 2 2 1 2 4 3 3 5 4 4 5 5 5 4 4 3 3 6 7 5 4 4 3 2 2 3 1 2 2 8 7 2 4 4 3 3 3 3 2 1 1 2 3 5 4 2 6 7 7 11 10
28 31 29 27 26 27 28 26 26 26 25 26 24 23 23 21 20 19 18 18 16 15 15 14 14 13 13 12 11 10 8 7 5 3 2 2 1 3 5 4 4 5 5 6 6 5 5 5 6 6 6 7 6 6 7 7 5 4 3 3 3 2 3 5 4 2 4 4 4 5 3 3 3 2 2 1 3 6 6 4 5 6 6 10 11
32 33 29 29 28 27 28 27 26 26 26 27 26 24 24 23 22 20 18 17 16 15 15 16 16 16 15 13 12 10 8 5 4 3 3 4 3 3 5 5 5 5 6 7 6 6 6 6 7 8 8 7 7 8 8 7 7 6 5 5 4 3 3 4 3 1 2 3 4 5 5 3 2 2 4 2 2 5 6 6 6 4 5 9 11
34 36 32 32 29 24 26 27 25 25 26 27 27 25 25 24 23 22 19 18 17 17 17 18 17 17 15 13 11 10 8 6 5 5 4 5 5 4 5 6 5 5 7 7 7 8 7 7 8 8 8 9 10 11 10 9 8 7 5 4 4 5 5 5 6 5 2 2 3 5 6 6 5 5 5 3 2 4 4 6 7 4 5 10 10
34 36 32 33 33 25 25 27 25 25 26 27 28 26 25 24 23 22 20 19 19 19 19 18 17 17 16 13 12 10 8 6 6 6 5 6 7 5 5 6 6 7 7 7 7 8 9 9 10 9 9 10 10 11 11 10 10 9 9 8 8 8 7 7 10 11 6 2 2 3 11 11 8 9 9 5 3 4 5 7 8 6 5 9 9
31 33 30 32 33 27 25 28 26 25 27 28 29 27 25 25 24 22 21 21 22 21 20 19 18 18 16 14 13 11 9 8 7 6 4 6 8 6 6 6 7 7 8 8 8 9 10 11 11 11 11 10 11 11 11 11 10 10 11 12 13 12 10 10 11 13 10 7 6 1 6 7 7 12 14 8 4 6 9 6 5 6 5 8 9
Wind_Direction
128 135 140 143 142 140 136 129 125 124 127 126 126 125 126 124 118 116 111 108 106 108 111 107 103 102 95 87 84 81 74 66 62 59 64 77 85 84 88 98 105 107 107 105 100 94 90 88 90 90 90 86 85 95 95 93 92 89 88 90 93 91 85 80 77 75 73 70 66 60 57 59 64 65 65 66 65 65 69 71 61 45 49 48 43
128 132 138 141 141 139 136 129 126 126 127 126 126 126 124 123 120 117 112 111 114 118 117 110 106 104 94 89 88 81 75 68 65 64 68 76 84 85 90 98 103 107 109 111 104 94 93 96 97 95 92 89 91 96 95 92 91 88 88 92 95 92 85 81 78 78 78 75 69 63 59 57 62 65 64 64 62 61 56 56 53 47 48 42 41
125 128 136 141 141 140 136 129 129 129 129 127 126 126 124 122 121 118 117 119 122 123 119 114 110 104 97 94 89 82 78 72 69 72 76 77 83 88 93 100 105 108 110 113 109 102 104 108 104 98 95 94 97 96 94 92 91 90 90 94 96 93 87 83 79 78 79 78 75 67 60 53 55 60 61 61 58 58 53 49 48 48 44 34 39
124 128 135 141 141 141 138 132 133 132 131 129 128 126 125 124 123 123 123 126 126 125 120 117 114 108 102 99 91 84 83 80 76 76 81 81 85 90 94 100 107 111 112 114 114 112 112 112 104 99 99 100 102 98 96 95 93 93 95 97 97 94 89 85 79 74 73 76 81 75 68 50 44 50 53 55 54 55 54 50 48 52 46 36 36
125 131 135 140 141 143 140 135 133 133 134 131 130 129 127 126 127 127 128 131 131 128 123 120 118 114 110 104 94 90 90 87 84 79 83 87 89 94 98 102 107 112 114 116 115 116 114 110 108 105 105 105 103 101 100 99 97 98 99 101 99 95 90 86 81 74 65 64 74 86 99 57 39 44 45 49 49 51 52 49 47 52 53 49 36
127 132 135 137 141 145 142 137 135 135 136 134 133 130 128 129 129 129 130 134 135 131 127 126 124 120 115 108 100 96 95 92 92 86 84 89 94 100 101 105 111 113 115 118 118 119 117 115 113 110 108 107 104 103 103 101 102 102 102 104 101 95 91 87 81 74 63 54 55 78 114 77 41 43 42 46 45 46 50 44 41 45 50 57 43
129 133 137 137 141 146 145 140 138 139 138 137 136 131 130 131 131 131 132 134 136 134 131 131 129 126 121 114 105 100 103 101 100 95 93 94 96 100 102 109 113 115 117 119 120 120 119 119 116 114 113 108 104 104 105 104 104 104 103 105 102 96 92 91 84 78 69 54 42 55 104 87 44 47 44 47 45 45 50 43 38 42 43 49 44
131 134 137 138 143 148 147 143 140 142 141 139 137 134 133 132 134 134 135 135 137 136 135 134 130 130 126 118 107 103 108 107 105 99 99 103 105 104 106 115 116 118 121 120 121 121 119 119 120 120 116 109 106 106 106 106 105 104 104 105 101 95 92 92 85 80 72 63 53 47 88 88 48 51 48 50 51 48 52 48 44 45 44 41 39
134 134 135 138 146 149 147 143 141 142 142 140 138 136 134 134 137 137 138 137 138 139 136 135 131 131 126 120 113 109 109 106 104 99 99 106 117 120 116 122 123 124 124 125 124 122 121 120 124 122 117 111 110 109 107 107 106 106 104 105 101 97 95 87 77 72 70 77 66 51 79 82 50 52 52 52 56 56 56 54 51 49 45 41 38
131 130 132 139 147 149 147 143 141 143 143 141 139 137 136 137 140 140 140 138 140 140 139 136 132 131 128 126 119 113 108 105 101 98 97 104 127 132 128 130 128 129 128 130 129 128 129 125 125 122 116 114 113 112 110 107 105 107 104 105 104 103 100 78 64 63 66 77 64 62 84 72 47 53 55 53 56 58 57 55 53 50 45 42 39
123 123 127 139 149 150 147 142 141 143 144 143 139 138 138 140 141 141 139 139 141 140 140 136 133 133 133 129 120 115 111 106 99 96 96 106 129 132 132 137 135 139 138 137 136 132 133 132 127 119 115 114 115 113 110 106 102 104 102 105 104 102 89 58 42 35 45 56 47 84 93 60 46 55 55 50 51 54 53 52 50 48 45 41 39
118 122 130 142 148 150 146 141 141 143 145 143 139 138 139 140 141 141 139 140 140 140 141 139 136 136 134 133 126 124 122 116 109 102 98 112 128 129 131 139 142 145 144 143 140 138 140 137 128 118 117 114 113 111 107 104 101 98 97 100 98 97 58 12 3 356 356 25 41 101 102 56 45 50 51 48 46 47 48 50 47 47 45 41 39
115 124 133 142 146 148 145 141 142 144 143 141 139 139 139 141 142 140 140 141 140 140 142 142 141 139 142 145 140 139 138 132 133 128 111 124 135 134 134 140 148 147 145 147 148 153 149 140 128 123 122 117 113 108 104 100 97 95 91 88 77 63 18 357 356 353 2 30 50 90 90 44 41 44 46 44 39 38 41 44 42 41 41 39 37
115 125 131 140 144 145 144 143 145 144 141 141 141 141 140 141 143 142 143 144 143 146 148 148 149 152 162 166 164 159 156 151 151 151 131 134 141 141 142 144 149 149 152 156 158 163 154 142 129 127 126 123 119 110 106 99 94 90 78 63 41 10 354 347 353 349 357 48 64 76 76 51 41 35 34 32 29 25 25 28 26 26 26 25 24
122 126 129 137 143 145 146 146 145 142 142 143 142 142 144 143 144 146 148 149 150 155 158 159 162 173 186 192 196 184 185 178 165 160 146 141 144 145 150 157 160 157 161 162 162 162 157 148 130 126 125 123 122 117 110 98 89 73 52 34 21 7 356 339 351 358 6 47 61 70 77 54 36 24 21 16 14 11 10 15 13 13 13 11 9
126 126 130 136 142 146 146 146 144 144 145 143 143 145 147 147 149 151 152 155 157 159 164 172 177 187 196 200 202 197 198 187 175 166 153 150 150 151 156 163 169 167 169 165 160 162 160 155 142 134 127 125 123 119 111 94 78 50 30 17 5 4 14 358 2 13 15 39 58 69 65 37 31 15 4 0 360 358 2 10 11 10 7 3 3
127 126 130 134 141 144 143 146 146 146 147 145 147 148 149 152 155 156 157 158 158 162 170 180 185 188 192 195 198 195 193 187 182 169 157 159 158 159 160 162 173 176 172 166 162 165 167 164 159 154 144 140 133 122 110 83 53 26 8 5 2 10 24 12 11 13 17 46 65 66 49 28 23 4 350 346 346 350 357 6 10 12 8 360 359
127 127 130 136 141 142 144 150 150 148 149 149 149 151 153 158 159 160 161 162 163 168 176 178 175 171 171 180 183 182 184 182 183 174 162 163 167 169 165 164 172 176 172 170 169 170 174 182 184 184 185 189 192 212 327 350 349 352 359 6 12 23 21 8 12 12 30 59 60 40 31 25 12 354 342 338 340 341 348 0 6 12 10 2 1
127 128 132 140 144 145 151 153 151 153 152 152 153 155 159 162 164 164 166 167 168 168 170 165 148 139 135 135 132 135 152 167 176 175 167 166 176 175 164 161 161 164 170 173 176 178 185 195 205 217 226 238 246 266 303 324 342 352 2 12 23 25 9 9 14 19 43 55 41 22 20 17 5 350 339 336 339 338 343 353 357 2 4 2 4
126 130 136 144 148 150 155 156 155 157 155 155 156 160 164 167 169 169 172 170 168 166 160 147 130 121 118 117 111 103 102 136 160 166 168 170 176 172 160 158 155 159 167 174 181 185 194 205 223 237 246 254 261 270 292 324 355 5 10 24 28 12 356 4 16 30 50 47 25 24 21 14 5 355 352 348 346 343 346 352 353 353 354 355 359
128 132 141 147 153 156 157 160 161 161 158 158 158 163 167 170 172 173 176 169 163 160 150 134 122 114 113 113 108 93 74 103 133 142 164 167 170 167 165 165 160 162 166 175 182 184 199 216 232 241 251 255 260 260 258 271 324 8 28 42 19 355 350 7 35 54 59 40 24 34 29 19 11 6 3 358 358 355 356 359 355 351 350 351 351
137 137 146 153 156 160 162 163 165 164 161 158 160 168 169 171 175 176 175 167 161 155 146 135 123 114 114 116 117 128 83 74 122 143 161 164 170 167 167 175 169 168 170 175 184 192 203 216 235 243 251 255 261 259 256 263 268 350 45 53 11 331 337 21 58 71 66 40 35 43 30 22 18 13 10 5 5 4 7 6 359 357 353 350 350
146 145 152 160 161 164 167 165 167 168 163 157 164 171 168 173 176 174 173 164 158 152 147 139 135 132 125 119 122 156 194 173 140 164 168 169 176 173 170 179 177 177 180 182 192 200 216 230 239 249 254 258 255 255 255 260 268 276 261 105 2 300 334 65 84 87 81 64 54 50 36 31 25 17 17 14 13 14 18 15 9 5 359 355 357
153 152 155 169 169 168 167 166 170 170 162 159 168 169 165 170 170 172 174 162 157 153 153 153 159 174 168 153 140 167 187 186 168 173 188 179 175 180 178 183 186 189 191 196 204 210 226 235 248 257 252 259 263 268 264 250 261 274 219 148 251 314 77 106 106 102 96 82 70 61 51 47 42 35 30 30 31 31 33 30 27 20 12 13 16
157 155 161 178 175 167 166 169 172 169 165 165 166 167 169 170 168 173 173 159 158 162 175 180 180 190 183 180 177 179 189 185 171 174 192 177 171 187 187 190 194 198 205 207 213 227 244 246 258 268 260 266 272 273 264 242 245 250 187 146 265 341 99 117 115 109 103 90 85 76 69 68 61 52 47 48 50 48 49 45 43 39 35 35 35
161 161 170 180 174 165 166 172 174 169 168 168 165 169 174 173 169 171 176 173 169 172 189 191 189 192 183 186 187 180 180 176 171 174 187 183 176 191 201 211 213 218 225 222 226 235 248 250 250 261 264 264 265 263 249 226 237 271 165 139 153 65 104 118 117 110 105 97 94 81 69 73 73 72 67 62 59 57 55 50 47 45 47 47 44
167 166 170 175 171 165 166 173 176 171 169 169 168 172 175 174 172 170 179 187 179 176 187 190 193 196 188 189 190 182 180 184 186 185 192 192 189 201 217 228 228 227 228 231 238 234 237 242 239 241 240 244 246 250 279 257 215 337 61 130 134 111 113 123 123 109 90 77 76 64 49 53 69 81 80 71 66 63 58 53 52 48 50 49 46
168 164 167 169 170 169 167 172 175 173 172 171 169 172 175 174 173 176 183 183 178 180 187 189 195 200 195 192 193 192 191 197 205 204 210 208 198 204 224 237 235 229 226 231 241 238 229 218 223 210 173 222 242 222 265 282 164 355 69 109 112 116 122 125 126 117 87 63 63 57 42 37 45 60 74 74 68 67 63 58 55 49 47 44 40
160 160 165 164 171 174 169 172 174 173 174 172 170 171 174 173 173 184 191 181 179 186 188 190 192 197 197 193 197 199 199 208 206 186 198 203 176 172 201 231 235 238 238 227 231 240 232 207 225 212 178 228 249 192 241 265 195 150 97 95 93 108 123 128 131 125 94 72 69 67 56 41 34 32 41 51 43 53 55 53 55 50 43 39 35
153 157 165 158 170 178 171 173 174 174 174 172 173 172 171 173 176 186 191 182 180 185 186 191 194 193 198 197 199 202 190 181 192 179 179 196 173 164 184 211 214 258 259 223 211 228 227 203 200 203 174 182 214 179 257 273 197 138 96 91 90 92 106 124 139 138 112 90 80 76 66 50 40 32 29 31 28 32 33 30 35 42 41 38 34
156 160 167 158 169 180 174 173 172 174 175 174 175 173 172 175 179 186 189 184 182 184 185 192 195 191 199 197 187 198 182 157 175 200 188 205 204 177 183 192 180 198 233 235 234 200 194 184 159 170 154 131 147 132 56 44 47 74 88 83 84 86 84 93 115 132 123 100 86 77 65 52 45 37 29 25 24 26 27 28 28 30 32 30 27
160 162 167 160 170 182 178 170 168 173 175 175 175 173 174 175 182 186 183 184 186 185 186 192 192 192 194 182 172 186 190 174 179 184 179 188 192 180 182 187 184 182 188 222 294 267 213 171 139 160 151 132 134 100 81 74 54 59 75 78 76 79 78 78 86 93 98 100 84 71 62 51 42 35 28 23 21 19 20 25 25 25 25 25 28
165 166 164 163 174 182 179 168 167 174 175 175 174 172 173 174 182 185 180 185 186 182 189 194 187 192 185 166 185 191 180 182 180 178 178 176 176 175 175 176 179 174 150 143 273 250 228 184 145 155 144 136 129 105 93 92 82 71 70 74 75 74 75 73 73 77 82 88 79 62 54 46 40 31 23 18 17 15 16 21 21 20 19 22 30
170 174 164 165 175 179 178 169 166 174 176 175 172 170 172 174 178 181 182 183 181 183 190 192 185 189 176 160 201 198 150 170 174 177 173 159 166 160 149 155 158 156 136 128 220 241 231 158 124 134 138 135 127 118 115 102 86 80 76 74 72 72 76 73 72 77 76 81 82 74 64 56 47 36 25 16 15 17 20 24 25 22 19 21 26
173 179 165 164 172 174 175 169 166 173 176 176 173 171 171 173 178 179 182 178 178 188 187 187 186 182 170 162 192 173 125 165 172 174 158 141 154 148 136 144 156 167 137 125 249 263 206 70 96 113 109 127 135 124 119 109 82 74 78 81 74 71 76 72 72 77 75 71 69 68 67 63 58 50 36 20 15 18 20 25 25 21 19 20 24
174 178 164 161 171 173 170 169 171 176 176 177 174 173 172 174 180 181 180 177 178 189 186 187 186 170 160 159 173 155 133 170 171 168 154 139 147 145 135 131 142 165 124 116 261 262 91 87 98 111 118 131 145 120 107 105 94 80 78 82 74 71 75 70 69 73 76 73 61 53 48 49 51 51 48 30 19 17 17 23 22 17 13 13 19
171 174 162 160 172 174 169 172 175 176 177 178 174 173 174 174 181 180 178 179 180 188 187 184 174 154 156 165 169 152 139 159 167 160 155 145 145 147 135 123 116 100 105 284 271 257 257 110 103 120 172 143 40 119 120 108 104 93 81 82 73 70 75 73 74 74 75 74 66 57 48 55 53 46 47 39 33 26 17 19 18 11 5 4 9
169 173 168 163 171 172 171 175 176 177 177 177 175 174 175 174 179 179 178 180 182 189 183 173 167 157 163 171 162 150 145 150 156 150 147 147 149 144 126 119 113 96 173 225 249 233 248 150 119 355 171 110 34 97 121 113 106 97 84 83 76 75 79 76 80 80 76 72 68 61 50 59 64 54 45 35 43 46 32 24 17 6 359 358 1
171 173 171 171 175 172 173 177 176 177 178 177 175 172 173 175 177 177 178 180 183 185 173 163 160 155 164 171 158 152 147 143 152 142 130 143 153 141 121 116 121 146 194 237 245 178 194 209 176 153 101 52 67 103 120 117 109 100 91 88 80 79 83 81 80 77 77 76 73 73 59 52 56 58 54 37 36 41 42 36 24 12 359 356 357
175 174 170 176 179 174 175 178 176 178 177 175 174 173 174 176 176 176 178 181 182 176 166 160 152 146 163 177 157 146 139 135 150 147 132 148 153 124 123 119 156 211 224 244 268 147 192 223 288 178 154 110 112 119 129 126 113 101 96 98 91 85 85 83 81 77 80 83 85 93 84 63 49 48 50 43 30 25 26 27 29 37 14 359 357
178 175 172 181 182 176 177 177 177 177 175 173 173 176 178 178 177 179 180 180 178 168 159 157 150 149 162 171 150 136 129 127 134 137 139 150 145 124 142 161 216 230 230 244 272 294 197 178 357 179 140 128 126 131 143 139 122 108 101 106 104 92 85 81 84 85 83 85 88 88 82 73 60 41 41 43 36 23 14 10 12 24 33 14 358
177 175 175 186 184 179 179 177 176 176 176 178 177 177 181 181 179 179 179 176 173 166 160 157 149 145 147 153 145 129 122 125 126 127 133 144 151 152 167 181 203 214 203 227 250 255 232 184 160 154 138 142 130 137 151 145 133 138 136 127 115 100 95 92 92 95 89 87 87 77 64 64 65 48 44 39 33 31 13 4 2 2 17 23 359
176 176 180 187 185 182 181 177 175 174 177 180 178 180 181 180 179 178 178 173 170 168 158 150 142 138 137 136 136 129 126 128 125 124 129 136 151 152 158 177 196 215 217 227 217 225 248 182 158 152 151 160 135 133 151 148 149 159 156 148 140 128 114 117 115 102 98 106 110 108 94 73 66 63 59 29 359 357 345 345 346 346 1 12 359
176 178 185 188 186 184 180 176 174 173 176 177 177 182 182 178 177 177 177 167 160 160 150 142 140 136 136 137 141 146 141 129 122 127 127 123 142 150 151 170 181 200 234 229 179 193 205 138 148 149 146 161 147 131 145 148 140 149 155 212 175 161 153 155 142 123 131 127 111 126 127 98 59 50 57 28 3 344 322 322 329 329 343 357 353
178 181 189 191 186 183 179 176 174 173 175 177 178 180 180 178 174 169 164 155 149 151 148 146 149 141 138 145 150 150 141 129 128 131 122 101 143 173 159 184 185 167 183 163 150 162 161 146 148 152 133 133 139 125 114 144 133 130 89 359 156 164 47 149 146 146 174 145 94 100 113 106 73 25 33 30 358 337 305 299 323 327 328 340 342
181 184 190 190 186 182 179 176 173 173 175 177 178 179 180 180 173 161 153 151 151 159 162 158 158 152 146 144 143 142 138 134 130 129 128 99 42 103 119 139 154 137 141 148 144 136 130 128 126 127 90 96 121 120 107 121 124 113 53 37 75 5 77 151 155 150 175 158 129 128 104 112 137 132 8 13 326 314 314 298 321 322 316 325 327
182 186 189 190 189 184 179 175 174 175 174 175 177 179 181 181 175 165 159 159 160 168 172 165 161 155 148 145 149 151 145 135 127 128 146 123 106 107 110 122 134 135 138 134 133 131 124 119 112 114 110 100 106 120 118 115 105 85 69 75 89 53 84 143 149 118 158 174 177 168 148 128 109 128 220 308 313 306 324 343 331 311 309 321 318
183 185 186 188 189 185 180 176 176 176 173 174 177 179 180 178 175 170 165 165 165 170 171 164 161 154 149 154 159 154 140 131 130 136 138 126 118 111 114 121 123 130 132 124 122 124 126 126 115 112 121 110 94 105 109 102 99 91 88 88 87 86 80 83 68 62 149 162 181 180 175 177 148 149 174 189 266 290 307 323 336 310 293 317 317
185 188 188 189 187 182 181 178 177 177 174 176 179 181 180 177 174 171 170 171 170 170 165 159 158 155 155 161 162 154 144 138 139 152 161 144 124 113 119 121 118 128 129 125 127 123 119 122 120 117 120 111 98 99 96 87 87 79 73 74 77 85 79 62 38 20 35 160 171 174 178 190 214 213 191 188 253 303 281 267 302 306 286 313 317
186 189 190 193 189 182 183 180 178 178 176 179 181 181 181 177 174 174 175 172 166 163 160 157 157 158 162 166 163 157 149 145 150 170 174 144 127 119 124 125 121 124 123 120 127 125 118 113 113 115 119 115 105 101 95 90 87 74 63 62 60 55 53 49 31 19 7 341 17 160 177 185 199 206 213 217 234 294 271 251 279 285 291 314 314
184 186 188 193 190 185 185 182 182 180 178 181 183 181 181 178 177 179 177 168 161 161 158 157 161 164 166 165 161 155 147 152 165 179 160 120 119 123 127 130 122 119 120 117 116 115 113 110 108 108 110 108 103 99 93 90 87 79 70 66 62 54 50 46 31 21 13 4 356 328 180 194 198 189 204 222 227 255 250 248 283 280 295 319 318